| time (UTC) | temp F | wind direction | speed MPH | gust MPH | rain 1hr in | rain 24hr in | rain mn in | humidity % | barometer mb |
| 20260903200509 | 82 | 137 | 12.0 | 15.0 | 0.00 | 0.00 | 0.00 | 17 | 1014.9 |
| 20260903200004 | 81 | 149 | 12.0 | 14.0 | 0.00 | 0.00 | 0.00 | 18 | 1014.7 |
| 20260903195501 | 82 | 151 | 15.0 | 20.0 | 0.00 | 0.00 | 0.00 | 17 | 1014.9 |
| 20260903194956 | 82 | 171 | 9.0 | 17.0 | 0.00 | 0.00 | 0.00 | 18 | 1015.1 |
| 20260903194451 | 81 | 138 | 13.0 | 19.0 | 0.00 | 0.00 | 0.00 | 17 | 1015.1 |
| 20260903193946 | 81 | 179 | 7.0 | 11.0 | 0.00 | 0.00 | 0.00 | 17 | 1015.1 |
| 20260903193442 | 81 | 185 | 10.0 | 16.0 | 0.00 | 0.00 | 0.00 | 18 | 1015.3 |
| 20260903192937 | 81 | 140 | 16.0 | 19.0 | 0.00 | 0.00 | 0.00 | 17 | 1015.3 |
| 20260903192435 | 80 | 131 | 12.0 | 14.0 | 0.00 | 0.00 | 0.00 | 18 | 1015.5 |
| 20260903191935 | 79 | 137 | 9.0 | 24.0 | 0.00 | 0.00 | 0.00 | 16 | 1015.6 |
| 20260903191431 | 80 | 169 | 16.0 | 24.0 | 0.00 | 0.00 | 0.00 | 17 | 1015.6 |
| 20260903190930 | 80 | 165 | 6.0 | 20.0 | 0.00 | 0.00 | 0.00 | 17 | 1015.9 |
| 20260903190425 | 80 | 145 | 14.0 | 21.0 | 0.00 | 0.00 | 0.00 | 17 | 1015.9 |
| 20260903185924 | 80 | 152 | 11.0 | 19.0 | 0.00 | 0.00 | 0.00 | 20 | 1016.0 |
| 20260903185420 | 79 | 187 | 5.0 | 16.0 | 0.00 | 0.00 | 0.00 | 19 | 1015.6 |
| 20260903184915 | 79 | 196 | 6.0 | 16.0 | 0.00 | 0.00 | 0.00 | 19 | 1016.2 |
| 20260903184412 | 80 | 115 | 10.0 | 21.0 | 0.00 | 0.00 | 0.00 | 18 | 1016.1 |
| 20260903183912 | 79 | 187 | 8.0 | 19.0 | 0.00 | 0.00 | 0.00 | 17 | 1016.2 |
| 20260903183407 | 80 | 135 | 17.0 | 19.0 | 0.00 | 0.00 | 0.00 | 18 | 1016.2 |
| 20260903182906 | 80 | 198 | 9.0 | 14.0 | 0.00 | 0.00 | 0.00 | 20 | 1016.4 |
| 20260903182405 | 79 | 157 | 6.0 | 11.0 | 0.00 | 0.00 | 0.00 | 18 | 1016.6 |
| 20260903181906 | 79 | 144 | 9.0 | 21.0 | 0.00 | 0.00 | 0.00 | 18 | 1016.4 |
| 20260903181401 | 79 | 187 | 8.0 | 17.0 | 0.00 | 0.00 | 0.00 | 20 | 1016.6 |
| 20260903180901 | 78 | 170 | 4.0 | 21.0 | 0.00 | 0.00 | 0.00 | 18 | 1016.7 |
| 20260903180401 | 79 | 175 | 16.0 | 24.0 | 0.00 | 0.00 | 0.00 | 17 | 1016.7 |
| 20260903175855 | 79 | 172 | 7.0 | 17.0 | 0.00 | 0.00 | 0.00 | 19 | 1016.6 |
| 20260903175355 | 78 | 172 | 4.0 | 15.0 | 0.00 | 0.00 | 0.00 | 19 | 1016.8 |
| 20260903174850 | 78 | 152 | 11.0 | 30.0 | 0.00 | 0.00 | 0.00 | 18 | 1016.6 |
| 20260903174345 | 78 | 129 | 13.0 | 19.0 | 0.00 | 0.00 | 0.00 | 18 | 1016.3 |
| 20260903173844 | 77 | 118 | 12.0 | 23.0 | 0.00 | 0.00 | 0.00 | 18 | 1016.8 |
| 20260903173339 | 78 | 126 | 19.0 | 21.0 | 0.00 | 0.00 | 0.00 | 17 | 1016.8 |
| 20260903172835 | 78 | 153 | 4.0 | 20.0 | 0.00 | 0.00 | 0.00 | 19 | 1016.8 |
| 20260903172329 | 78 | 191 | 8.0 | 14.0 | 0.00 | 0.00 | 0.00 | 19 | 1016.4 |
| 20260903171825 | 77 | 145 | 6.0 | 24.0 | 0.00 | 0.00 | 0.00 | 19 | 1016.7 |
| 20260903171321 | 78 | 130 | 7.0 | 18.0 | 0.00 | 0.00 | 0.00 | 18 | 1016.9 |
| 20260903170820 | 78 | 159 | 11.0 | 24.0 | 0.00 | 0.00 | 0.00 | 17 | 1016.7 |
| 20260903170315 | 78 | 142 | 6.0 | 19.0 | 0.00 | 0.00 | 0.00 | 19 | 1016.8 |
| 20260903165813 | 77 | 121 | 11.0 | 14.0 | 0.00 | 0.00 | 0.00 | 18 | 1016.9 |
| 20260903165309 | 77 | 122 | 7.0 | 22.0 | 0.00 | 0.00 | 0.00 | 19 | 1016.8 |
| 20260903164808 | 77 | 103 | 9.0 | 16.0 | 0.00 | 0.00 | 0.00 | 20 | 1016.8 |
| 20260903164304 | 77 | 103 | 11.0 | 13.0 | 0.00 | 0.00 | 0.00 | 18 | 1016.9 |
| 20260903163803 | 76 | 167 | 3.0 | 17.0 | 0.00 | 0.00 | 0.00 | 17 | 1016.9 |
| 20260903163300 | 75 | 145 | 12.0 | 24.0 | 0.00 | 0.00 | 0.00 | 18 | 1016.7 |
| 20260903162755 | 76 | 154 | 17.0 | 23.0 | 0.00 | 0.00 | 0.00 | 18 | 1016.8 |
| 20260903162251 | 76 | 110 | 15.0 | 23.0 | 0.00 | 0.00 | 0.00 | 20 | 1016.9 |
| 20260903161747 | 75 | 134 | 15.0 | 28.0 | 0.00 | 0.00 | 0.00 | 18 | 1016.9 |
| 20260903161242 | 75 | 136 | 8.0 | 22.0 | 0.00 | 0.00 | 0.00 | 17 | 1016.7 |
| 20260903160738 | 75 | 130 | 10.0 | 23.0 | 0.00 | 0.00 | 0.00 | 18 | 1016.8 |
| 20260903160236 | 75 | 151 | 10.0 | 20.0 | 0.00 | 0.00 | 0.00 | 19 | 1016.8 |
| 20260903155735 | 75 | 164 | 9.0 | 16.0 | 0.00 | 0.00 | 0.00 | 18 | 1016.8 |
| 20260903155231 | 75 | 130 | 7.0 | 22.0 | 0.00 | 0.00 | 0.00 | 18 | 1016.7 |
| 20260903154726 | 75 | 156 | 19.0 | 21.0 | 0.00 | 0.00 | 0.00 | 19 | 1016.4 |
| 20260903154222 | 74 | 157 | 7.0 | 21.0 | 0.00 | 0.00 | 0.00 | 19 | 1016.8 |
| 20260903153717 | 74 | 148 | 16.0 | 18.0 | 0.00 | 0.00 | 0.00 | 19 | 1016.6 |
| 20260903153213 | 74 | 142 | 9.0 | 18.0 | 0.00 | 0.00 | 0.00 | 19 | 1017.0 |
| 20260903152709 | 73 | 144 | 11.0 | 23.0 | 0.00 | 0.00 | 0.00 | 19 | 1016.9 |
| 20260903152206 | 73 | 139 | 12.0 | 21.0 | 0.00 | 0.00 | 0.00 | 20 | 1016.8 |
| 20260903151705 | 73 | 172 | 4.0 | 17.0 | 0.00 | 0.00 | 0.00 | 18 | 1017.1 |
| 20260903151200 | 73 | 139 | 17.0 | 20.0 | 0.00 | 0.00 | 0.00 | 19 | 1017.0 |
| 20260903150655 | 71 | 148 | 6.0 | 17.0 | 0.00 | 0.00 | 0.00 | 20 | 1016.8 |
| 20260903150150 | 70 | 178 | 4.0 | 13.0 | 0.00 | 0.00 | 0.00 | 20 | 1016.9 |
| 20260903145649 | 70 | 139 | 10.0 | 17.0 | 0.00 | 0.00 | 0.00 | 20 | 1016.8 |
| 20260903145144 | 69 | 156 | 9.0 | 16.0 | 0.00 | 0.00 | 0.00 | 21 | 1016.8 |
| 20260903144643 | 69 | 152 | 9.0 | 21.0 | 0.00 | 0.00 | 0.00 | 20 | 1016.7 |
| 20260903144139 | 69 | 146 | 9.0 | 18.0 | 0.00 | 0.00 | 0.00 | 20 | 1016.8 |
| 20260903143635 | 69 | 134 | 7.0 | 16.0 | 0.00 | 0.00 | 0.00 | 21 | 1016.7 |
| 20260903143131 | 68 | 112 | 8.0 | 19.0 | 0.00 | 0.00 | 0.00 | 20 | 1016.7 |
| 20260903142627 | 67 | 135 | 17.0 | 21.0 | 0.00 | 0.00 | 0.00 | 22 | 1016.7 |
| 20260903142124 | 66 | 148 | 12.0 | 13.0 | 0.00 | 0.00 | 0.00 | 23 | 1016.7 |
| 20260903141619 | 66 | 163 | 8.0 | 16.0 | 0.00 | 0.00 | 0.00 | 24 | 1016.8 |
| 20260903141113 | 66 | 180 | 7.0 | 13.0 | 0.00 | 0.00 | 0.00 | 23 | 1016.4 |
| 20260903140609 | 66 | 127 | 6.0 | 13.0 | 0.00 | 0.00 | 0.00 | 23 | 1016.4 |
| 20260903140104 | 65 | 157 | 10.0 | 14.0 | 0.00 | 0.00 | 0.00 | 24 | 1016.6 |
| 20260903135600 | 65 | 143 | 6.0 | 14.0 | 0.00 | 0.00 | 0.00 | 23 | 1016.7 |
| 20260903135055 | 65 | 185 | 6.0 | 13.0 | 0.00 | 0.00 | 0.00 | 24 | 1016.7 |
| 20260903134554 | 65 | 181 | 10.0 | 16.0 | 0.00 | 0.00 | 0.00 | 23 | 1016.3 |
| 20260903134050 | 65 | 156 | 12.0 | 17.0 | 0.00 | 0.00 | 0.00 | 23 | 1016.3 |
| 20260903133547 | 66 | 174 | 8.0 | 16.0 | 0.00 | 0.00 | 0.00 | 22 | 1016.4 |
| 20260903133043 | 66 | 177 | 10.0 | 16.0 | 0.00 | 0.00 | 0.00 | 22 | 1016.4 |
| 20260903132537 | 66 | 145 | 16.0 | 17.0 | 0.00 | 0.00 | 0.00 | 21 | 1016.3 |
| 20260903132032 | 66 | 169 | 14.0 | 18.0 | 0.00 | 0.00 | 0.00 | 22 | 1016.6 |
| 20260903131527 | 66 | 157 | 12.0 | 17.0 | 0.00 | 0.00 | 0.00 | 21 | 1016.1 |
| 20260903131026 | 66 | 150 | 10.0 | 21.0 | 0.00 | 0.00 | 0.00 | 20 | 1016.3 |
| 20260903130521 | 66 | 151 | 6.0 | 15.0 | 0.00 | 0.00 | 0.00 | 21 | 1016.0 |
| 20260903130020 | 66 | 160 | 9.0 | 17.0 | 0.00 | 0.00 | 0.00 | 21 | 1016.1 |
| 20260903125520 | 66 | 152 | 10.0 | 16.0 | 0.00 | 0.00 | 0.00 | 22 | 1015.9 |
| 20260903125015 | 66 | 155 | 6.0 | 12.0 | 0.00 | 0.00 | 0.00 | 22 | 1015.9 |
| 20260903124510 | 66 | 146 | 11.0 | 16.0 | 0.00 | 0.00 | 0.00 | 22 | 1016.0 |
| 20260903124009 | 66 | 131 | 9.0 | 14.0 | 0.00 | 0.00 | 0.00 | 22 | 1015.9 |
| 20260903123508 | 66 | 143 | 9.0 | 17.0 | 0.00 | 0.00 | 0.00 | 21 | 1015.9 |
| 20260903123007 | 65 | 137 | 13.0 | 22.0 | 0.00 | 0.00 | 0.00 | 23 | 1015.6 |
| 20260903122503 | 64 | 161 | 11.0 | 15.0 | 0.00 | 0.00 | 0.00 | 22 | 1015.7 |
| 20260903122001 | 64 | 184 | 6.0 | 14.0 | 0.00 | 0.00 | 0.00 | 23 | 1015.9 |
| 20260903121456 | 64 | 154 | 9.0 | 17.0 | 0.00 | 0.00 | 0.00 | 26 | 1015.9 |
| 20260903120952 | 62 | 168 | 14.0 | 18.0 | 0.00 | 0.00 | 0.00 | 26 | 1015.9 |
| 20260903120451 | 62 | 165 | 11.0 | 19.0 | 0.00 | 0.00 | 0.00 | 33 | 1015.7 |
| 20260903115950 | 63 | 173 | 11.0 | 16.0 | 0.00 | 0.00 | 0.00 | 28 | 1015.7 |
| 20260903115449 | 63 | 153 | 9.0 | 17.0 | 0.00 | 0.00 | 0.00 | 27 | 1015.6 |
| 20260903114944 | 64 | 171 | 10.0 | 17.0 | 0.00 | 0.00 | 0.00 | 31 | 1015.7 |
| 20260903114439 | 64 | 157 | 15.0 | 19.0 | 0.00 | 0.00 | 0.00 | 28 | 1015.4 |
| 20260903113935 | 65 | 162 | 11.0 | 16.0 | 0.00 | 0.00 | 0.00 | 22 | 1015.4 |
| 20260903113431 | 65 | 178 | 9.0 | 19.0 | 0.00 | 0.00 | 0.00 | 22 | 1015.7 |
| 20260903112926 | 65 | 163 | 12.0 | 18.0 | 0.00 | 0.00 | 0.00 | 22 | 1015.6 |
| 20260903112422 | 65 | 151 | 14.0 | 19.0 | 0.00 | 0.00 | 0.00 | 22 | 1015.9 |
| 20260903111921 | 65 | 150 | 13.0 | 18.0 | 0.00 | 0.00 | 0.00 | 22 | 1015.7 |
| 20260903111420 | 65 | 155 | 15.0 | 19.0 | 0.00 | 0.00 | 0.00 | 22 | 1015.5 |
| 20260903110917 | 66 | 159 | 12.0 | 16.0 | 0.00 | 0.00 | 0.00 | 22 | 1015.6 |
| 20260903110412 | 66 | 162 | 10.0 | 18.0 | 0.00 | 0.00 | 0.00 | 22 | 1015.6 |
| 20260903105907 | 66 | 151 | 12.0 | 16.0 | 0.00 | 0.00 | 0.00 | 22 | 1015.6 |
| 20260903105403 | 66 | 159 | 14.0 | 20.0 | 0.00 | 0.00 | 0.00 | 22 | 1015.6 |
| 20260903104902 | 65 | 157 | 16.0 | 21.0 | 0.00 | 0.00 | 0.00 | 23 | 1015.4 |
| 20260903104356 | 66 | 170 | 13.0 | 19.0 | 0.00 | 0.00 | 0.00 | 22 | 1015.5 |
| 20260903103853 | 66 | 159 | 9.0 | 17.0 | 0.00 | 0.00 | 0.00 | 22 | 1015.5 |
| 20260903103349 | 66 | 160 | 11.0 | 18.0 | 0.00 | 0.00 | 0.00 | 22 | 1015.4 |
| 20260903102844 | 67 | 158 | 11.0 | 17.0 | 0.00 | 0.00 | 0.00 | 21 | 1015.2 |
| 20260903102338 | 67 | 166 | 11.0 | 21.0 | 0.00 | 0.00 | 0.00 | 21 | 1015.4 |
| 20260903101839 | 67 | 173 | 10.0 | 17.0 | 0.00 | 0.00 | 0.00 | 21 | 1015.3 |
| 20260903101333 | 67 | 158 | 10.0 | 26.0 | 0.00 | 0.00 | 0.00 | 20 | 1015.3 |
| 20260903100829 | 67 | 140 | 9.0 | 17.0 | 0.00 | 0.00 | 0.00 | 22 | 1015.3 |
| 20260903100329 | 66 | 148 | 20.0 | 22.0 | 0.00 | 0.00 | 0.00 | 23 | 1015.3 |
| 20260903095827 | 66 | 155 | 14.0 | 18.0 | 0.00 | 0.00 | 0.00 | 21 | 1015.5 |
| 20260903095326 | 66 | 141 | 16.0 | 19.0 | 0.00 | 0.00 | 0.00 | 23 | 1015.1 |
| 20260903094822 | 67 | 146 | 10.0 | 21.0 | 0.00 | 0.00 | 0.00 | 23 | 1014.9 |
| 20260903094316 | 66 | 148 | 10.0 | 22.0 | 0.00 | 0.00 | 0.00 | 22 | 1015.4 |
| 20260903093812 | 66 | 153 | 11.0 | 22.0 | 0.00 | 0.00 | 0.00 | 26 | 1014.9 |
| 20260903093307 | 66 | 148 | 17.0 | 21.0 | 0.00 | 0.00 | 0.00 | 25 | 1015.2 |
| 20260903092807 | 67 | 138 | 17.0 | 21.0 | 0.00 | 0.00 | 0.00 | 22 | 1015.2 |
| 20260903092306 | 66 | 147 | 15.0 | 19.0 | 0.00 | 0.00 | 0.00 | 23 | 1015.1 |
| 20260903091801 | 66 | 151 | 16.0 | 18.0 | 0.00 | 0.00 | 0.00 | 23 | 1015.3 |
| 20260903091255 | 66 | 165 | 8.0 | 17.0 | 0.00 | 0.00 | 0.00 | 23 | 1015.3 |
| 20260903090751 | 66 | 174 | 9.0 | 17.0 | 0.00 | 0.00 | 0.00 | 24 | 1015.4 |
| 20260903090250 | 67 | 162 | 10.0 | 19.0 | 0.00 | 0.00 | 0.00 | 22 | 1015.2 |
| 20260903085749 | 67 | 156 | 17.0 | 20.0 | 0.00 | 0.00 | 0.00 | 23 | 1015.1 |
| 20260903085244 | 67 | 157 | 8.0 | 19.0 | 0.00 | 0.00 | 0.00 | 23 | 1015.2 |
| 20260903084742 | 67 | 166 | 12.0 | 17.0 | 0.00 | 0.00 | 0.00 | 23 | 1015.4 |
| 20260903084237 | 68 | 129 | 13.0 | 22.0 | 0.00 | 0.00 | 0.00 | 22 | 1015.1 |
| 20260903083732 | 68 | 146 | 16.0 | 21.0 | 0.00 | 0.00 | 0.00 | 22 | 1015.4 |
| 20260903083226 | 68 | 161 | 11.0 | 23.0 | 0.00 | 0.00 | 0.00 | 21 | 1015.3 |
| 20260903082720 | 68 | 159 | 16.0 | 19.0 | 0.00 | 0.00 | 0.00 | 21 | 1015.4 |
| 20260903082216 | 68 | 148 | 12.0 | 17.0 | 0.00 | 0.00 | 0.00 | 21 | 1015.3 |
| 20260903081716 | 69 | 164 | 10.0 | 17.0 | 0.00 | 0.00 | 0.00 | 21 | 1015.4 |
| 20260903081212 | 69 | 148 | 13.0 | 17.0 | 0.00 | 0.00 | 0.00 | 21 | 1015.4 |
| 20260903080708 | 69 | 158 | 15.0 | 16.0 | 0.00 | 0.00 | 0.00 | 21 | 1015.5 |
| 20260903080205 | 69 | 131 | 11.0 | 18.0 | 0.00 | 0.00 | 0.00 | 21 | 1015.1 |
| 20260903075704 | 69 | 151 | 17.0 | 19.0 | 0.00 | 0.00 | 0.00 | 21 | 1015.1 |
| 20260903075200 | 70 | 142 | 8.0 | 15.0 | 0.00 | 0.00 | 0.00 | 21 | 1015.3 |
| 20260903074659 | 70 | 131 | 9.0 | 16.0 | 0.00 | 0.00 | 0.00 | 21 | 1015.3 |
| 20260903074155 | 70 | 141 | 14.0 | 20.0 | 0.00 | 0.00 | 0.00 | 21 | 1015.1 |
| 20260903073655 | 70 | 142 | 10.0 | 20.0 | 0.00 | 0.00 | 0.00 | 20 | 1015.3 |
| 20260903073150 | 70 | 155 | 11.0 | 20.0 | 0.00 | 0.00 | 0.00 | 20 | 1015.3 |
| 20260903072646 | 70 | 132 | 12.0 | 20.0 | 0.00 | 0.00 | 0.00 | 20 | 1015.1 |
| 20260903072142 | 71 | 157 | 15.0 | 20.0 | 0.00 | 0.00 | 0.00 | 22 | 1015.1 |
| 20260903071638 | 70 | 173 | 6.0 | 15.0 | 0.00 | 0.00 | 0.00 | 23 | 1015.3 |
| 20260903071134 | 71 | 147 | 7.0 | 19.0 | 0.00 | 0.00 | 0.00 | 22 | 1014.8 |
| 20260903070633 | 71 | 154 | 10.0 | 18.0 | 0.00 | 0.00 | 0.00 | 22 | 1014.7 |
| 20260903070130 | 71 | 146 | 8.0 | 21.0 | 0.00 | 0.00 | 0.00 | 22 | 1014.8 |
| 20260903065629 | 71 | 177 | 10.0 | 20.0 | 0.00 | 0.00 | 0.00 | 22 | 1015.1 |
| 20260903065124 | 71 | 160 | 18.0 | 22.0 | 0.00 | 0.00 | 0.00 | 23 | 1014.8 |
| 20260903064623 | 71 | 160 | 7.0 | 16.0 | 0.00 | 0.00 | 0.00 | 23 | 1014.9 |
| 20260903064119 | 71 | 163 | 14.0 | 20.0 | 0.00 | 0.00 | 0.00 | 22 | 1014.7 |
| 20260903063614 | 71 | 153 | 13.0 | 21.0 | 0.00 | 0.00 | 0.00 | 22 | 1014.7 |
| 20260903063109 | 71 | 140 | 18.0 | 19.0 | 0.00 | 0.00 | 0.00 | 23 | 1014.7 |
| 20260903062605 | 71 | 134 | 19.0 | 22.0 | 0.00 | 0.00 | 0.00 | 23 | 1014.7 |
| 20260903062100 | 70 | 140 | 12.0 | 19.0 | 0.00 | 0.00 | 0.00 | 24 | 1014.8 |
| 20260903061555 | 70 | 160 | 10.0 | 20.0 | 0.00 | 0.00 | 0.00 | 25 | 1014.4 |
| 20260903061055 | 71 | 165 | 12.0 | 17.0 | 0.00 | 0.00 | 0.00 | 24 | 1014.4 |
| 20260903060554 | 70 | 156 | 9.0 | 20.0 | 0.00 | 0.00 | 0.00 | 25 | 1014.4 |
| 20260903060050 | 71 | 152 | 8.0 | 15.0 | 0.00 | 0.00 | 0.00 | 28 | 1014.1 |
| 20260903055547 | 72 | 152 | 10.0 | 19.0 | 0.00 | 0.00 | 0.00 | 23 | 1014.2 |
| 20260903055046 | 72 | 141 | 13.0 | 20.0 | 0.00 | 0.00 | 0.00 | 21 | 1014.4 |
| 20260903054541 | 72 | 157 | 8.0 | 18.0 | 0.00 | 0.00 | 0.00 | 21 | 1014.6 |
| 20260903054037 | 72 | 164 | 8.0 | 18.0 | 0.00 | 0.00 | 0.00 | 21 | 1014.6 |
| 20260903053532 | 72 | 177 | 8.0 | 15.0 | 0.00 | 0.00 | 0.00 | 20 | 1014.4 |
| 20260903053029 | 73 | 152 | 9.0 | 17.0 | 0.00 | 0.00 | 0.00 | 20 | 1014.1 |
| 20260903052524 | 73 | 148 | 12.0 | 18.0 | 0.00 | 0.00 | 0.00 | 21 | 1014.6 |
| 20260903052020 | 73 | 145 | 15.0 | 17.0 | 0.00 | 0.00 | 0.00 | 20 | 1014.5 |
| 20260903051519 | 73 | 169 | 10.0 | 17.0 | 0.00 | 0.00 | 0.00 | 20 | 1014.5 |
| 20260903051015 | 73 | 142 | 12.0 | 17.0 | 0.00 | 0.00 | 0.00 | 20 | 1014.6 |
| 20260903050514 | 73 | 154 | 10.0 | 14.0 | 0.00 | 0.00 | 0.00 | 20 | 1014.5 |
| 20260903050010 | 73 | 149 | 14.0 | 17.0 | 0.00 | 0.00 | 0.00 | 19 | 1014.4 |
| 20260903045504 | 73 | 153 | 5.0 | 17.0 | 0.00 | 0.00 | 0.00 | 19 | 1014.6 |
| 20260903045001 | 73 | 156 | 9.0 | 17.0 | 0.00 | 0.00 | 0.00 | 20 | 1014.5 |
| 20260903044456 | 73 | 176 | 10.0 | 15.0 | 0.00 | 0.00 | 0.00 | 21 | 1014.5 |
| 20260903043952 | 73 | 168 | 8.0 | 16.0 | 0.00 | 0.00 | 0.00 | 20 | 1014.5 |
| 20260903043448 | 74 | 156 | 10.0 | 14.0 | 0.00 | 0.00 | 0.00 | 20 | 1014.5 |
| 20260903042946 | 73 | 153 | 7.0 | 15.0 | 0.00 | 0.00 | 0.00 | 19 | 1014.6 |
| 20260903042442 | 73 | 137 | 10.0 | 15.0 | 0.00 | 0.00 | 0.00 | 23 | 1014.5 |
| 20260903041937 | 73 | 148 | 8.0 | 15.0 | 0.00 | 0.00 | 0.00 | 23 | 1014.2 |
| 20260903041434 | 73 | 158 | 11.0 | 15.0 | 0.00 | 0.00 | 0.00 | 23 | 1014.4 |
| 20260903040929 | 72 | 153 | 6.0 | 14.0 | 0.00 | 0.00 | 0.00 | 26 | 1014.4 |
| 20260903040428 | 73 | 136 | 13.0 | 21.0 | 0.00 | 0.00 | 0.00 | 25 | 1014.2 |
| 20260903035924 | 73 | 153 | 11.0 | 22.0 | 0.00 | 0.00 | 0.00 | 24 | 1014.1 |
| 20260903035420 | 73 | 159 | 9.0 | 16.0 | 0.00 | 0.00 | 0.00 | 25 | 1014.2 |
| 20260903034920 | 74 | 136 | 12.0 | 18.0 | 0.00 | 0.00 | 0.00 | 25 | 1014.1 |
| 20260903034415 | 74 | 149 | 6.0 | 17.0 | 0.00 | 0.00 | 0.00 | 22 | 1013.9 |
| 20260903033910 | 75 | 157 | 13.0 | 19.0 | 0.00 | 0.00 | 0.00 | 22 | 1013.9 |
| 20260903033405 | 75 | 150 | 8.0 | 16.0 | 0.00 | 0.00 | 0.00 | 22 | 1014.0 |
| 20260903032900 | 75 | 166 | 8.0 | 20.0 | 0.00 | 0.00 | 0.00 | 22 | 1014.4 |
| 20260903032356 | 75 | 157 | 7.0 | 15.0 | 0.00 | 0.00 | 0.00 | 22 | 1013.8 |
| 20260903031851 | 74 | 161 | 8.0 | 16.0 | 0.00 | 0.00 | 0.00 | 23 | 1014.0 |
| 20260903031350 | 74 | 165 | 10.0 | 14.0 | 0.00 | 0.00 | 0.00 | 22 | 1013.8 |
| 20260903030846 | 74 | 168 | 6.0 | 15.0 | 0.00 | 0.00 | 0.00 | 22 | 1013.8 |
| 20260903030342 | 75 | 180 | 8.0 | 13.0 | 0.00 | 0.00 | 0.00 | 21 | 1013.9 |
| 20260903025837 | 75 | 162 | 9.0 | 15.0 | 0.00 | 0.00 | 0.00 | 20 | 1013.7 |
| 20260903025332 | 75 | 150 | 11.0 | 15.0 | 0.00 | 0.00 | 0.00 | 21 | 1014.0 |
| 20260903024832 | 75 | 166 | 6.0 | 11.0 | 0.00 | 0.00 | 0.00 | 20 | 1013.7 |
| 20260903024331 | 75 | 135 | 7.0 | 13.0 | 0.00 | 0.00 | 0.00 | 20 | 1013.9 |
| 20260903023827 | 76 | 141 | 7.0 | 15.0 | 0.00 | 0.00 | 0.00 | 20 | 1013.8 |
| 20260903023323 | 76 | 156 | 8.0 | 12.0 | 0.00 | 0.00 | 0.00 | 19 | 1013.7 |
| 20260903022818 | 76 | 132 | 11.0 | 17.0 | 0.00 | 0.00 | 0.00 | 19 | 1013.6 |
| 20260903022317 | 76 | 148 | 6.0 | 13.0 | 0.00 | 0.00 | 0.00 | 20 | 1013.4 |
| 20260903021816 | 76 | 145 | 11.0 | 14.0 | 0.00 | 0.00 | 0.00 | 20 | 1013.6 |
| 20260903021312 | 76 | 170 | 6.0 | 15.0 | 0.00 | 0.00 | 0.00 | 20 | 1013.4 |
| 20260903020812 | 76 | 157 | 8.0 | 13.0 | 0.00 | 0.00 | 0.00 | 20 | 1013.7 |
| 20260903020307 | 76 | 163 | 7.0 | 13.0 | 0.00 | 0.00 | 0.00 | 20 | 1013.4 |
| 20260903015802 | 76 | 152 | 5.0 | 14.0 | 0.00 | 0.00 | 0.00 | 20 | 1013.6 |
| 20260903015257 | 77 | 142 | 9.0 | 11.0 | 0.00 | 0.00 | 0.00 | 20 | 1013.6 |
| 20260903014753 | 77 | 165 | 5.0 | 9.0 | 0.00 | 0.00 | 0.00 | 20 | 1013.7 |
| 20260903014252 | 78 | 160 | 6.0 | 10.0 | 0.00 | 0.00 | 0.00 | 18 | 1013.6 |
| 20260903013747 | 78 | 139 | 8.0 | 10.0 | 0.00 | 0.00 | 0.00 | 18 | 1013.8 |
| 20260903013246 | 78 | 179 | 8.0 | 9.0 | 0.00 | 0.00 | 0.00 | 17 | 1013.9 |
| 20260903012745 | 79 | 170 | 3.0 | 11.0 | 0.00 | 0.00 | 0.00 | 17 | 1013.7 |
| 20260903012245 | 79 | 171 | 8.0 | 11.0 | 0.00 | 0.00 | 0.00 | 18 | 1013.9 |
| 20260903011739 | 79 | 160 | 6.0 | 13.0 | 0.00 | 0.00 | 0.00 | 16 | 1013.8 |
| 20260903011234 | 80 | 168 | 7.0 | 17.0 | 0.00 | 0.00 | 0.00 | 16 | 1014.0 |
| 20260903010730 | 81 | 164 | 9.0 | 15.0 | 0.00 | 0.00 | 0.00 | 17 | 1014.0 |
| 20260903010230 | 81 | 164 | 8.0 | 15.0 | 0.00 | 0.00 | 0.00 | 18 | 1013.9 |
| 20260903005728 | 81 | 162 | 12.0 | 15.0 | 0.00 | 0.00 | 0.00 | 16 | 1014.0 |
| 20260903005223 | 81 | 193 | 8.0 | 14.0 | 0.00 | 0.00 | 0.00 | 17 | 1014.0 |
| 20260903004719 | 80 | 161 | 11.0 | 15.0 | 0.00 | 0.00 | 0.00 | 17 | 1014.0 |
| 20260903004214 | 79 | 140 | 8.0 | 10.0 | 0.00 | 0.00 | 0.00 | 18 | 1013.9 |
| 20260903003709 | 80 | 176 | 3.0 | 11.0 | 0.00 | 0.00 | 0.00 | 18 | 1014.1 |
| 20260903003204 | 80 | 180 | 4.0 | 11.0 | 0.00 | 0.00 | 0.00 | 18 | 1014.0 |
| 20260903002659 | 80 | 177 | 10.0 | 13.0 | 0.00 | 0.00 | 0.00 | 17 | 1014.4 |
| 20260903002154 | 81 | 203 | 2.0 | 9.0 | 0.00 | 0.00 | 0.00 | 19 | 1014.4 |
| 20260903001649 | 82 | 159 | 4.0 | 12.0 | 0.00 | 0.00 | 0.00 | 18 | 1014.2 |
| 20260903001148 | 82 | 204 | 7.0 | 13.0 | 0.00 | 0.00 | 0.00 | 16 | 1014.4 |
| 20260903000644 | 81 | 211 | 15.0 | 17.0 | 0.00 | 0.00 | 0.00 | 18 | 1014.1 |
| 20260903000143 | 81 | 174 | 12.0 | 19.0 | 0.00 | 0.00 | 0.00 | 17 | 1014.1 |
| 20260902235642 | 82 | 152 | 7.0 | 7.0 | 0.00 | 0.00 | 0.00 | 19 | 1014.1 |
| 20260902235138 | 82 | 240 | 7.0 | 17.0 | 0.00 | 0.00 | 0.00 | 18 | 1013.9 |
| 20260902234632 | 82 | 216 | 5.0 | 16.0 | 0.00 | 0.00 | 0.00 | 18 | 1014.4 |
| 20260902234130 | 83 | 223 | 9.0 | 13.0 | 0.00 | 0.00 | 0.00 | 18 | 1014.1 |
| 20260902233625 | 84 | 231 | 8.0 | 19.0 | 0.00 | 0.00 | 0.00 | 19 | 1014.4 |
| 20260902233119 | 84 | 175 | 3.0 | 11.0 | 0.00 | 0.00 | 0.00 | 20 | 1014.4 |
| 20260902232614 | 84 | 205 | 11.0 | 19.0 | 0.00 | 0.00 | 0.00 | 19 | 1014.5 |
| 20260902232113 | 84 | 239 | 9.0 | 15.0 | 0.00 | 0.00 | 0.00 | 19 | 1014.5 |
| 20260902231613 | 82 | 224 | 11.0 | 19.0 | 0.00 | 0.00 | 0.00 | 19 | 1014.4 |
| 20260902231112 | 81 | 185 | 3.0 | 22.0 | 0.00 | 0.00 | 0.00 | 19 | 1014.2 |
| 20260902230608 | 81 | 205 | 12.0 | 19.0 | 0.00 | 0.00 | 0.00 | 20 | 1014.4 |
| 20260902230106 | 82 | 201 | 8.0 | 22.0 | 0.00 | 0.00 | 0.00 | 18 | 1014.6 |
| 20260902225602 | 82 | 216 | 11.0 | 17.0 | 0.00 | 0.00 | 0.00 | 19 | 1014.6 |
| 20260902225101 | 82 | 165 | 11.0 | 18.0 | 0.00 | 0.00 | 0.00 | 18 | 1014.5 |
| 20260902224600 | 82 | 155 | 7.0 | 19.0 | 0.00 | 0.00 | 0.00 | 19 | 1014.4 |
| 20260902224056 | 82 | 149 | 7.0 | 11.0 | 0.00 | 0.00 | 0.00 | 21 | 1014.2 |
| 20260902223552 | 82 | 175 | 8.0 | 14.0 | 0.00 | 0.00 | 0.00 | 21 | 1014.5 |
| 20260902223051 | 82 | 183 | 10.0 | 16.0 | 0.00 | 0.00 | 0.00 | 20 | 1014.5 |
| 20260902222550 | 82 | 191 | 11.0 | 19.0 | 0.00 | 0.00 | 0.00 | 20 | 1014.4 |
| 20260902222049 | 82 | 217 | 5.0 | 17.0 | 0.00 | 0.00 | 0.00 | 20 | 1014.6 |
| 20260902221544 | 83 | 146 | 6.0 | 13.0 | 0.00 | 0.00 | 0.00 | 20 | 1014.5 |
| 20260902221039 | 82 | 179 | 9.0 | 12.0 | 0.00 | 0.00 | 0.00 | 22 | 1014.8 |
| 20260902220534 | 81 | 164 | 11.0 | 22.0 | 0.00 | 0.00 | 0.00 | 23 | 1014.5 |
| 20260902220029 | 81 | 188 | 8.0 | 19.0 | 0.00 | 0.00 | 0.00 | 21 | 1014.6 |
| 20260902215525 | 81 | 169 | 11.0 | 11.0 | 0.00 | 0.00 | 0.00 | 24 | 1014.8 |
| 20260902215020 | 82 | 160 | 13.0 | 15.0 | 0.00 | 0.00 | 0.00 | 23 | 1015.1 |
| 20260902214520 | 82 | 210 | 12.0 | 13.0 | 0.00 | 0.00 | 0.00 | 22 | 1014.7 |
| 20260902214019 | 82 | 223 | 4.0 | 17.0 | 0.00 | 0.00 | 0.00 | 24 | 1015.1 |
| 20260902213515 | 82 | 182 | 3.0 | 18.0 | 0.00 | 0.00 | 0.00 | 24 | 1014.9 |
| 20260902213014 | 82 | 153 | 7.0 | 10.0 | 0.00 | 0.00 | 0.00 | 22 | 1014.7 |
| 20260902212510 | 83 | 212 | 16.0 | 22.0 | 0.00 | 0.00 | 0.00 | 22 | 1015.1 |
| 20260902212006 | 82 | 193 | 7.0 | 14.0 | 0.00 | 0.00 | 0.00 | 22 | 1014.9 |
| 20260902211502 | 83 | 180 | 14.0 | 25.0 | 0.00 | 0.00 | 0.00 | 22 | 1014.9 |
| 20260902210956 | 82 | 183 | 6.0 | 13.0 | 0.00 | 0.00 | 0.00 | 24 | 1014.8 |
| 20260902210451 | 82 | 176 | 10.0 | 20.0 | 0.00 | 0.00 | 0.00 | 22 | 1015.2 |
| 20260902205950 | 82 | 166 | 11.0 | 25.0 | 0.00 | 0.00 | 0.00 | 21 | 1014.9 |
| 20260902205449 | 82 | 197 | 11.0 | 12.0 | 0.00 | 0.00 | 0.00 | 23 | 1015.2 |
| 20260902204945 | 82 | 163 | 12.0 | 20.0 | 0.00 | 0.00 | 0.00 | 23 | 1015.2 |
| 20260902204444 | 83 | 176 | 15.0 | 22.0 | 0.00 | 0.00 | 0.00 | 23 | 1015.2 |
| 20260902203940 | 83 | 193 | 5.0 | 12.0 | 0.00 | 0.00 | 0.00 | 24 | 1015.3 |
| 20260902203436 | 83 | 155 | 16.0 | 19.0 | 0.00 | 0.00 | 0.00 | 23 | 1015.2 |
| 20260902202935 | 83 | 196 | 13.0 | 22.0 | 0.00 | 0.00 | 0.00 | 22 | 1015.2 |
| 20260902202431 | 83 | 216 | 7.0 | 24.0 | 0.00 | 0.00 | 0.00 | 22 | 1015.1 |
| 20260902201928 | 83 | 203 | 12.0 | 17.0 | 0.00 | 0.00 | 0.00 | 23 | 1015.4 |
| 20260902201423 | 82 | 211 | 4.0 | 15.0 | 0.00 | 0.00 | 0.00 | 22 | 1015.4 |
| 20260902200922 | 82 | 143 | 6.0 | 23.0 | 0.00 | 0.00 | 0.00 | 23 | 1015.4 |